Home > Weather > Nijmegen > Past weeks

Flag for Netherlands Past Weather in Nijmegen, Netherlands — Yesterday and Last 2 Weeks

Now
61 °F

Cloudy.


Feels Like: 61 °F
Forecast: 56 / 69 °F
Wind: 10 mph from Southwest

Location: Volkel

Current Time: Jun 30, 2016 at 7:00:03 AM

Latest Report: Jun 30, 2016 at 6:25 AM


Visibility: N/A

Pressure: 29.83 "Hg

Humidity: 83%

Dew Point: 55 °F

Location of NijmegenLocation

Past Weather in Nijmegen — Graph

°F

Nijmegen Temperature Yesterday

Maximum temperature yesterday: 70 °F (at 3:25 PM)
Minimum temperature yesterday: 57 °F (at 1:25 AM)
Average temperature yesterday: 62 °F

High & Low Weather Summary for the Past Weeks

 TemperatureHumidityPressure
High88 °F (Jun 23, 4:55 PM)100% (Jun 15, 5:25 AM)30.24 "Hg (Jun 15, 5:25 AM)
Low46 °F (Jun 16, 4:55 AM)49% (Jun 16, 2:55 PM)29.45 "Hg (Jun 15, 5:25 AM)
Average62 °F84%29.95 "Hg
* Reported Jun 15 5:25 AM — Jun 30 5:25 AM, Nijmegen, Weather by CustomWeather, © 2016

Note: Actual official high and low records may vary slightly from our data, if they occured in-between our weather recording intervals... More about our weather records

Advertising

Nijmegen Weather History for the Previous 24 Hours

Scroll right to see more
 ConditionsComfort  
Time TempWeatherWind HumidityBarometerVisibility
5:25 AM
Thu, Jun 30
59 °FPartly cloudy.8 mph88%29.83 "HgN/A
4:55 AM59 °FOvercast.8 mph88%29.83 "HgN/A
4:25 AM59 °FOvercast.7 mph88%29.80 "HgN/A
3:55 AM59 °FMostly cloudy.7 mph88%29.83 "HgN/A
3:25 AM59 °FMostly cloudy.6 mph88%29.83 "HgN/A
2:55 AM57 °FPassing clouds.3 mph94%29.83 "HgN/A
2:25 AM57 °FDrizzle. Overcast.5 mph94%29.83 "HgN/A
1:55 AM57 °FPassing clouds.5 mph94%29.83 "HgN/A
1:25 AM57 °FPartly cloudy.2 mph94%29.83 "HgN/A
12:55 AM57 °FMostly cloudy.6 mph88%29.83 "HgN/A
12:25 AM57 °FMostly cloudy.1 mph94%29.83 "HgN/A
11:55 PM
Wed, Jun 29
57 °FMostly cloudy.1 mph94%29.83 "HgN/A
11:25 PM57 °FDrizzle. Overcast.1 mph94%29.83 "HgN/A
10:55 PM57 °FLight rain. Broken clouds.1 mph88%29.86 "HgN/A
10:25 PM59 °FRain showers. Mostly cloudy.No wind82%29.86 "HgN/A
9:55 PM59 °FLight rain. Cloudy.3 mph77%29.86 "HgN/A
9:25 PM61 °FDrizzle. Overcast.6 mph72%29.86 "HgN/A
8:55 PM63 °FLight rain. Broken clouds.8 mph73%29.86 "HgN/A
8:25 PM64 °FDrizzle. More clouds than sun.8 mph64%29.86 "HgN/A
7:55 PM66 °FOvercast.9 mph60%29.86 "HgN/A
7:25 PM66 °FPartly sunny.7 mph60%29.86 "HgN/A
6:55 PM68 °FOvercast.12 mph53%29.86 "HgN/A
6:25 PM68 °FBroken clouds.13 mph53%29.86 "HgN/A
5:55 PM70 °FBroken clouds.14 mph53%29.86 "HgN/A
5:25 PM68 °FOvercast.15 mph53%29.86 "HgN/A
4:55 PM68 °FBroken clouds.14 mph56%29.86 "HgN/A
4:25 PM68 °FMore clouds than sun.15 mph56%29.89 "HgN/A
3:55 PM68 °FPartly sunny.13 mph53%29.89 "HgN/A
3:25 PM70 °FPassing clouds.13 mph50%29.89 "HgN/A
2:55 PM68 °FBroken clouds.14 mph56%29.89 "HgN/A
2:25 PM68 °FBroken clouds.13 mph56%29.89 "HgN/A
1:55 PM64 °FPartly sunny.14 mph68%29.89 "HgN/A
1:25 PM66 °FPassing clouds.16 mph64%29.89 "HgN/A
12:55 PM64 °FScattered clouds.15 mph68%29.89 "HgN/A
12:25 PM64 °FBroken clouds.15 mph73%29.89 "HgN/A
11:55 AM63 °FMostly cloudy.16 mph73%29.89 "HgN/A
11:25 AM63 °FBroken clouds.16 mph77%29.86 "HgN/A
10:55 AM61 °FPartly sunny.17 mph77%29.86 "HgN/A
10:25 AM61 °FBroken clouds.17 mph83%29.86 "HgN/A
9:56 AM61 °FPartly sunny.15 mph88%29.86 "HgN/A
9:25 AM57 °FDrizzle. Partly sunny.14 mph94%29.86 "Hg6 mi
9:01 AM59 °FFog.17 mph88%29.86 "Hg4 mi
8:25 AM59 °FMostly cloudy.16 mph82%29.83 "HgN/A
7:55 AM57 °FCloudy.14 mph88%29.83 "HgN/A
7:25 AM57 °FCloudy.15 mph88%29.83 "HgN/A
Weather by CustomWeather, © 2016

See weather overviewHow to use our weather pages